EXPLORER 11

Satellite information

Favourite Embed

Satellite Type and Status

PAYLOADIN ORBIT

Key statistics

Satellite EXPLORER 11 at a glance.

Uptime

23560

Days in orbit

Revolutions

≈ 14.2

Per day

Orbit

LEO

Low Earth Orbit

Inclination

28.8

Latest

Satellite identification and parameters

Extended collection of information and parameters for EXPLORER 11.

Object identification

Identified? True

Debris? False

Object name: EXPLORER 11

International designator: 1961-013A

Object number (NORAD): 107

Object ID (CCSDS): 107

Country: UNITED STATES OF AMERICA (US)

Current information (Y/N): Y

RCS size: MEDIUM

Orbital parameters

Period: 101.354 minutes

Inclination: 28.7839 deg

SMA: 7200.933 km

Apoapsis: 1182.99 km

Periapsis: 462.606 km

RAAN: 219.8092 deg

Eccentricy: 0.05002018

Argument of periapsis: 112.235 deg

Mean anomaly: 253.2043 deg

Mean motion: 14.20756442 rev/day

Mean motion (dot): 0.00003809 rev/day2

B* drag term: 0.00045175065 1/REarth

Two-line elements (TLE)

Creation date: Oct. 27, 2025, 2:46 a.m.

Reference frame: TEME

Reference center: EARTH

Epoch: Oct. 26, 2025, 11:21 p.m. UTC

TLE line 0: 0 EXPLORER 11

TLE line 1: 1 00107U 61013A 25299.97359379 .00003809 00000-0 45175-3 0 9993

TLE line 2: 2 00107 28.7839 219.8092 0500202 112.2350 253.2043 14.20756442243284

Live tracking on map

Real-time ground track for satellite EXPLORER 11.

In-orbit conjunctions

A list of the most updated potential collisions computed for object EXPLORER 11.

Target Orbit TCA Probability of collision Miss distance Type
COSMOS 2195 LEO 2025-06-14 17:34:35 0.001320837 911.0 (m) PAYLOAD
COSMOS 1275 DEB LEO 2024-11-02 20:29:20 0.0003607363 277.0 (m) DEBRIS
CZ-4 DEB SSO 2024-07-20 21:54:33 0.0001684341 842.0 (m) DEBRIS

Associated space launch

EXPLORER 11 was lifted into orbit during the mission ‘Juno II | Explorer 11’, on board a Juno II space rocket.

The launch took place on April 27, 1961, 2:16 p.m. from Launch Complex 26B.

For more information about the launch, click the button.

Launch to space Juno II | Explorer 11
Juno II | Explorer 11

Agency: N/A

Status: Launch Successful

Launch date: April 27, 1961, 2:16 p.m. UTC

Rocket: Juno II

Launch pad: Launch Complex 26B

Location: Cape Canaveral SFS, FL, USA

...

Latest news about this satellite

There are no fresh news available about this satellite. Check back as we update our databases every day.


Newsletter sign-up

Weekly statistics, charts and insights to help you stay on top of the space industry.